Location: site
(53.0000°N, 23.0500°E)
Time: 19:20:50
(UTC+01:00)

SAOCOM 1-A - Pass Details

Date: 12 December 2020
Orbit: 621 x 623 km, 97.9° (Epoch: 24 January)

Event Time Altitude Azimuth Distance (km) Brightness Sun altitude
Rises 05:18:02 0° 185° (S) 2,894 ? -18.8°
Reaches altitude 10° 05:20:20 10° 193° (SSW) 1,993 ? -18.4°
Maximum altitude 05:24:24 39° 263° (W) 951 ? -17.9°
Enters shadow 05:25:02 36° 284° (WNW) 991 ? -17.8°
